Gage, OK

11:18 AM CST on February 19, 2017 (GMT -0600)
Gage

Weather History for KGAG - January, 2013

Change the Weather History Date:

Sunday, January 6, 2013

  Actual Average Record
Temperature  
Mean Temperature 37 °F -  
Max Temperature 53 °F 45 °F 77 °F (2008)
Min Temperature 21 °F 17 °F -4 °F (2014)
Degree Days  
Heating Degree Days 28    
Moisture  
Dew Point 21 °F    
Average Humidity 64    
Maximum Humidity 92    
Minimum Humidity 26    
Precipitation  
Precipitation 0.00 in - - ()
Sea Level Pressure  
Sea Level Pressure 30.37 in    
Wind  
Wind Speed 6 mph (SW)    
Max Wind Speed 12 mph    
Max Gust Speed -    
Visibility 10 miles    
Events      
Averages and records for this station are not official NWS values.
T = Trace of Precipitation, MM = Missing Value Source: NWS Daily Summary

Daily Weather History Graph

Daily Weather History Graph

Search for Another Location

Airport or City:

Trip Planner

Search our weather history database for the weather conditions in past years. The results will help you decide how hot, cold, wet, or windy it might be!

Date:

Astronomy

Jan. 06, 2013 Rise Set
Actual Time 7:51 AM CST 5:39 PM CST
Civil Twilight 7:22 AM CST 6:07 PM CST
Nautical Twilight 6:50 AM CST 6:39 PM CST
Astronomical Twilight 6:19 AM CST 7:11 PM CST
Moon 2:11 AM CST (1/6) 1:04 PM CST (1/6)
Length of Visible Light 10h 45m
Length of Day
9h 48m
Waning Crescent, 33% of the Moon is Illuminated
Jan 6
Waning Crescent
Jan 11
New
Jan 18
First Quarter
Jan 26
Full
Feb 3
Last Quarter

Hourly Weather History & Observations

Time (CST) Temp. Windchill Dew Point Humidity Pressure Visibility Wind Dir Wind Speed Gust Speed Precip Events Conditions
12:53 AM 28.9 °F - 23.0 °F 78% 30.40 in 10.0 mi Calm Calm - N/A   Clear
1:53 AM 24.1 °F 15.2 °F 21.0 °F 88% 30.40 in 10.0 mi West 8.1 mph - N/A   Clear
2:53 AM 23.0 °F 15.8 °F 21.0 °F 92% 30.41 in 10.0 mi WSW 5.8 mph - N/A   Clear
3:53 AM 23.0 °F 14.7 °F 19.9 °F 88% 30.42 in 10.0 mi SW 6.9 mph - N/A   Clear
4:53 AM 24.1 °F 14.4 °F 21.0 °F 88% 30.41 in 10.0 mi WSW 9.2 mph - N/A   Clear
5:53 AM 23.0 °F 13.9 °F 19.0 °F 85% 30.43 in 10.0 mi WSW 8.1 mph - N/A   Clear
6:53 AM 21.0 °F 13.4 °F 18.0 °F 88% 30.45 in 10.0 mi SW 5.8 mph - N/A   Clear
7:53 AM 21.0 °F 12.4 °F 18.0 °F 88% 30.45 in 10.0 mi West 6.9 mph - N/A   Clear
8:53 AM 24.1 °F 16.0 °F 21.0 °F 88% 30.46 in 10.0 mi WSW 6.9 mph - N/A   Clear
9:53 AM 32.0 °F 24.2 °F 25.0 °F 75% 30.47 in 10.0 mi WSW 9.2 mph - N/A   Clear
10:53 AM 39.0 °F 35.7 °F 25.0 °F 57% 30.46 in 10.0 mi WSW 4.6 mph - N/A   Clear
11:53 AM 45.0 °F 42.6 °F 23.0 °F 42% 30.43 in 10.0 mi West 4.6 mph - N/A   Clear
12:53 PM 48.9 °F - 21.9 °F 35% 30.38 in 10.0 mi West 5.8 mph - N/A   Clear
1:53 PM 51.1 °F - 21.0 °F 31% 30.34 in 10.0 mi Variable 3.5 mph - N/A   Clear
2:53 PM 53.6 °F - 19.4 °F 26% 30.28 in 10.0 mi Variable 3.5 mph - N/A   Clear
3:53 PM 52.0 °F - 19.9 °F 28% 30.30 in 10.0 mi SSW 11.5 mph - N/A   Clear
4:53 PM 48.9 °F - 19.9 °F 32% 30.30 in 10.0 mi South 8.1 mph - N/A   Clear
5:53 PM 39.9 °F 33.9 °F 21.0 °F 47% 30.30 in 10.0 mi South 9.2 mph - N/A   Clear
6:53 PM 36.0 °F 28.0 °F 21.0 °F 55% 30.31 in 10.0 mi South 11.5 mph - N/A   Clear
7:53 PM 34.0 °F 25.5 °F 21.9 °F 61% 30.32 in 10.0 mi South 11.5 mph - N/A   Clear
9:53 PM 34.0 °F 26.6 °F 21.9 °F 61% 30.29 in 10.0 mi South 9.2 mph - N/A   Clear
10:53 PM 30.0 °F 22.4 °F 21.9 °F 72% 30.27 in 10.0 mi SSW 8.1 mph - N/A   Clear
11:53 PM 32.0 °F 25.6 °F 21.9 °F 66% 30.25 in 10.0 mi SW 6.9 mph - N/A   Clear